TimeCST,TemperatureF,Dew PointF,Humidity,Sea Level PressureIn,VisibilityMPH,Wind Direction,Wind SpeedMPH,Gust SpeedMPH,PrecipitationIn,Events,Conditions,WindDirDegrees,DateUTC
12:15 AM,48.2,46.4,93,30.20,10.0,Calm,Calm,-,N/A,,Unknown,0,2013-01-22 06:15:00
12:35 AM,46.4,44.6,93,30.20,10.0,Calm,Calm,-,N/A,,Unknown,0,2013-01-22 06:35:00
12:55 AM,46.4,44.6,93,30.21,10.0,Calm,Calm,-,N/A,,Unknown,0,2013-01-22 06:55:00
1:15 AM,46.4,44.6,93,30.21,7.0,Calm,Calm,-,N/A,,Unknown,0,2013-01-22 07:15:00
1:55 AM,48.2,46.4,93,30.21,10.0,North,6.9,-,N/A,,Unknown,350,2013-01-22 07:55:00
2:15 AM,48.2,44.6,87,30.22,10.0,North,6.9,-,N/A,,Unknown,350,2013-01-22 08:15:00
2:55 AM,48.2,46.4,93,30.23,10.0,North,6.9,-,N/A,,Unknown,350,2013-01-22 08:55:00
3:15 AM,48.2,46.4,93,30.23,10.0,North,4.6,-,N/A,,Unknown,360,2013-01-22 09:15:00
3:35 AM,50.0,46.4,87,30.23,10.0,NNE,5.8,-,N/A,,Unknown,20,2013-01-22 09:35:00
3:55 AM,51.8,48.2,88,30.23,10.0,NE,5.8,-,N/A,,Unknown,40,2013-01-22 09:55:00
4:15 AM,50.0,48.2,94,30.23,10.0,NNE,4.6,-,N/A,,Unknown,30,2013-01-22 10:15:00
4:35 AM,50.0,48.2,94,30.23,10.0,NE,3.5,-,N/A,,Unknown,50,2013-01-22 10:35:00
4:55 AM,51.8,50.0,94,30.24,10.0,NNE,6.9,-,N/A,,Unknown,30,2013-01-22 10:55:00
5:15 AM,51.8,50.0,94,30.25,10.0,North,5.8,-,N/A,,Unknown,10,2013-01-22 11:15:00
5:35 AM,51.8,50.0,94,30.26,10.0,North,6.9,-,N/A,,Unknown,10,2013-01-22 11:35:00
5:55 AM,51.8,48.2,88,30.27,10.0,NNW,6.9,-,N/A,,Unknown,330,2013-01-22 11:55:00
6:15 AM,46.4,46.4,100,30.28,10.0,North,5.8,-,N/A,,Unknown,350,2013-01-22 12:15:00
6:35 AM,46.4,44.6,93,30.28,10.0,North,3.5,-,N/A,,Unknown,360,2013-01-22 12:35:00
6:55 AM,48.2,46.4,93,30.29,10.0,NNE,4.6,-,N/A,,Unknown,30,2013-01-22 12:55:00
7:15 AM,50.0,46.4,87,30.30,10.0,NE,4.6,-,N/A,,Unknown,50,2013-01-22 13:15:00
7:35 AM,51.8,46.4,82,30.30,7.0,NE,5.8,-,N/A,,Unknown,40,2013-01-22 13:35:00
7:55 AM,51.8,46.4,82,30.30,10.0,NE,5.8,-,N/A,,Unknown,40,2013-01-22 13:55:00
8:15 AM,51.8,46.4,82,30.31,10.0,NE,8.1,-,N/A,,Unknown,50,2013-01-22 14:15:00
8:35 AM,51.8,46.4,82,30.32,5.0,NE,9.2,-,N/A,,Haze,40,2013-01-22 14:35:00
8:55 AM,53.6,48.2,82,30.33,2.5,NNE,9.2,-,N/A,,Haze,20,2013-01-22 14:55:00
9:15 AM,53.6,46.4,77,30.34,3.0,NNE,10.4,-,N/A,,Haze,30,2013-01-22 15:15:00
9:35 AM,53.6,46.4,77,30.35,2.0,NNE,12.7,-,N/A,,Haze,30,2013-01-22 15:35:00
9:55 AM,55.4,46.4,72,30.36,2.5,NNE,11.5,-,N/A,,Haze,20,2013-01-22 15:55:00
10:15 AM,55.4,44.6,67,30.36,3.0,NNE,12.7,-,N/A,,Haze,20,2013-01-22 16:15:00
10:35 AM,55.4,46.4,72,30.35,2.0,NE,10.4,17.3,N/A,,Haze,40,2013-01-22 16:35:00
10:55 AM,57.2,44.6,63,30.35,2.5,NNE,10.4,-,N/A,,Haze,20,2013-01-22 16:55:00
11:15 AM,59.0,46.4,63,30.35,2.5,NNE,10.4,-,N/A,,Haze,30,2013-01-22 17:15:00
11:35 AM,59.0,46.4,63,30.34,2.0,NNE,10.4,-,N/A,,Haze,20,2013-01-22 17:35:00
11:55 AM,59.0,46.4,63,30.34,2.0,NNE,9.2,-,N/A,,Haze,20,2013-01-22 17:55:00
12:15 PM,60.8,46.4,59,30.33,3.0,NE,6.9,-,N/A,,Haze,40,2013-01-22 18:15:00
12:35 PM,60.8,46.4,59,30.31,2.5,NNE,8.1,-,N/A,,Haze,30,2013-01-22 18:35:00
12:55 PM,60.8,46.4,59,30.30,3.0,NE,6.9,-,N/A,,Haze,40,2013-01-22 18:55:00
1:15 PM,62.6,46.4,55,30.30,4.0,ENE,9.2,-,N/A,,Haze,60,2013-01-22 19:15:00
1:35 PM,62.6,46.4,55,30.30,2.0,NE,5.8,-,N/A,,Haze,50,2013-01-22 19:35:00
1:55 PM,62.6,46.4,55,30.29,5.0,NNE,9.2,-,N/A,,Haze,30,2013-01-22 19:55:00
2:15 PM,62.6,46.4,55,30.29,10.0,ENE,9.2,-,N/A,,Unknown,70,2013-01-22 20:15:00
2:35 PM,62.6,48.2,59,30.29,4.0,ENE,6.9,-,N/A,,Haze,60,2013-01-22 20:35:00
2:55 PM,62.6,46.4,55,30.29,5.0,NE,6.9,-,N/A,,Haze,50,2013-01-22 20:55:00
3:15 PM,62.6,48.2,59,30.29,7.0,NE,6.9,-,N/A,,Unknown,50,2013-01-22 21:15:00
3:35 PM,62.6,48.2,59,30.29,1.5,NE,5.8,-,N/A,,Haze,50,2013-01-22 21:35:00
3:55 PM,60.8,48.2,63,30.29,5.0,NE,8.1,-,N/A,,Haze,40,2013-01-22 21:55:00
4:15 PM,60.8,48.2,63,30.30,7.0,ENE,8.1,-,N/A,,Unknown,70,2013-01-22 22:15:00
4:35 PM,60.8,48.2,63,30.30,10.0,NE,6.9,-,N/A,,Unknown,50,2013-01-22 22:35:00
4:55 PM,59.0,48.2,67,30.30,10.0,NE,5.8,-,N/A,,Unknown,50,2013-01-22 22:55:00
5:15 PM,59.0,48.2,67,30.30,10.0,ENE,4.6,-,N/A,,Unknown,70,2013-01-22 23:15:00
5:35 PM,55.4,48.2,77,30.30,10.0,ENE,4.6,-,N/A,,Unknown,70,2013-01-22 23:35:00
5:55 PM,55.4,48.2,77,30.30,10.0,ENE,4.6,-,N/A,,Unknown,60,2013-01-22 23:55:00
6:15 PM,53.6,46.4,77,30.31,10.0,ENE,4.6,-,N/A,,Unknown,70,2013-01-23 00:15:00
6:35 PM,53.6,46.4,77,30.32,10.0,ENE,4.6,-,N/A,,Unknown,60,2013-01-23 00:35:00
6:55 PM,53.6,46.4,77,30.32,10.0,ENE,4.6,-,N/A,,Unknown,70,2013-01-23 00:55:00
7:15 PM,53.6,46.4,77,30.32,10.0,ENE,4.6,-,N/A,,Unknown,70,2013-01-23 01:15:00
7:35 PM,51.8,46.4,82,30.33,10.0,ENE,4.6,-,N/A,,Unknown,70,2013-01-23 01:35:00
7:55 PM,51.8,48.2,88,30.33,10.0,ENE,3.5,-,N/A,,Unknown,60,2013-01-23 01:55:00
8:15 PM,51.8,48.2,88,30.33,10.0,ENE,4.6,-,N/A,,Unknown,70,2013-01-23 02:15:00
8:35 PM,51.8,48.2,88,30.33,10.0,ENE,4.6,-,N/A,,Unknown,70,2013-01-23 02:35:00
8:55 PM,51.8,50.0,94,30.33,10.0,ENE,5.8,-,N/A,,Unknown,70,2013-01-23 02:55:00
9:15 PM,51.8,50.0,94,30.34,10.0,ENE,4.6,-,N/A,,Unknown,70,2013-01-23 03:15:00
9:35 PM,51.8,50.0,94,30.35,10.0,Calm,Calm,-,N/A,,Unknown,0,2013-01-23 03:35:00
9:55 PM,51.8,50.0,94,30.35,10.0,Calm,Calm,-,N/A,,Unknown,0,2013-01-23 03:55:00
10:15 PM,51.8,50.0,94,30.35,10.0,Calm,Calm,-,N/A,,Unknown,0,2013-01-23 04:15:00
10:35 PM,50.0,46.4,87,30.35,10.0,ENE,3.5,-,N/A,,Unknown,70,2013-01-23 04:35:00
10:55 PM,50.0,48.2,94,30.35,10.0,Calm,Calm,-,N/A,,Unknown,0,2013-01-23 04:55:00
11:15 PM,46.4,44.6,93,30.35,10.0,Calm,Calm,-,N/A,,Unknown,0,2013-01-23 05:15:00
11:35 PM,46.4,44.6,93,30.35,5.0,Calm,Calm,-,N/A,,Mist,0,2013-01-23 05:35:00
11:55 PM,46.4,44.6,93,30.35,1.8,Calm,Calm,-,N/A,,Mist,0,2013-01-23 05:55:00